SYRACUSE 4A

Last updated on Mon Nov 03 2025 00:02:59 GMT+0000 (Coordinated Universal Time)

1 49333U 21095B 25306.26642235 .00000147 00000+0 00000+0 0 9995 2 49333 0.0168 279.3923 0001510 297.3426 326.5116 1.00274475 15688
UTC large
Height (km)
Speed (km/s)
/
Latitude / Longitude
Inclination (degrees)
Orbital Period (minutes)
Azimuth
Elevation
Range (km)
Doppler Factor

Next 0 passes for location: London (51.5072 / 0.1276)

Sorry there are no passes over London.